This is the latest recevied weather packets stored in our database for station/object DB0WUN-13. If no packets are shown the sender has not sent any weather packets the latest 1 day(s).
| Time | Temp. | Humidity | Pressure | Rain* | Wind** | Luminosity | Snow |
|---|---|---|---|---|---|---|---|
| 1777986000 | 19.44° C | 59% | 1007.9 hPa | 0 mm | 1.34 m/s, 320° | 174 W/m² | - |
| 1777985961 | 19.44° C | 59% | 1007.9 hPa | 0 mm | 1.34 m/s, 35° | 181 W/m² | - |
| 1777985917 | 19.44° C | 59% | 1007.9 hPa | 0 mm | 1.79 m/s, 350° | 190 W/m² | - |
| 1777985875 | 19.44° C | 59% | 1007.9 hPa | 0 mm | 1.79 m/s, 336° | 207 W/m² | - |
| 1777985838 | 19.44° C | 58% | 1007.8 hPa | 0 mm | 1.79 m/s, 319° | 211 W/m² | - |
| 1777985791 | 19.44° C | 58% | 1007.9 hPa | 0 mm | 1.79 m/s, 318° | 216 W/m² | - |
| 1777985753 | 19.44° C | 58% | 1008 hPa | 0 mm | 1.79 m/s, 314° | 218 W/m² | - |
| 1777985583 | 19.44° C | 59% | 1008 hPa | 0 mm | 1.79 m/s, 331° | 221 W/m² | - |
| 1777985516 | 19.44° C | 58% | 1008 hPa | 0 mm | 1.79 m/s, 6° | 230 W/m² | - |
| 1777985456 | 19.44° C | 58% | 1008 hPa | 0 mm | 1.79 m/s, 19° | 244 W/m² | - |
| 1777985393 | 20° C | 57% | 1008 hPa | 0 mm | 1.79 m/s, 331° | 229 W/m² | - |
| 1777985331 | 20° C | 57% | 1008 hPa | 0 mm | 1.79 m/s, 342° | 214 W/m² | - |
| 1777985271 | 20° C | 58% | 1008 hPa | 0 mm | 1.34 m/s, 343° | 213 W/m² | - |
| 1777985215 | 20° C | 58% | 1008 hPa | 0 mm | 1.34 m/s, 321° | 223 W/m² | - |
| 1777985155 | 20° C | 58% | 1007.9 hPa | 0 mm | 1.34 m/s, 13° | 315 W/m² | - |
| 1777985091 | 20.56° C | 57% | 1008 hPa | 0 mm | 1.34 m/s, 21° | 315 W/m² | - |
| 1777985047 | 20.56° C | 58% | 1008 hPa | 0 mm | 1.34 m/s, 25° | 315 W/m² | - |
| 1777985005 | 20.56° C | 59% | 1008 hPa | 0 mm | 1.34 m/s, 36° | 647 W/m² | - |
| 1777984963 | 20.56° C | 58% | 1007.9 hPa | 0 mm | 1.34 m/s, 315° | 647 W/m² | - |
| 1777984926 | 20.56° C | 57% | 1008 hPa | 0 mm | 1.34 m/s, 325° | 659 W/m² | - |
| 1777984884 | 20.56° C | 59% | 1007.9 hPa | 0 mm | 1.34 m/s, 319° | 656 W/m² | - |
| 1777984849 | 20.56° C | 58% | 1008 hPa | 0 mm | 1.79 m/s, 329° | 671 W/m² | - |
| 1777984667 | 20° C | 59% | 1008 hPa | 0 mm | 1.79 m/s, 327° | 671 W/m² | - |
| 1777984610 | 20° C | 58% | 1008 hPa | 0 mm | 1.79 m/s, 329° | 671 W/m² | - |
| 1777984545 | 20° C | 57% | 1008 hPa | 0 mm | 1.79 m/s, 25° | 649 W/m² | - |
* Rain latest hour (hover to see other rain measurements)
** Current wind speed in m/s (hover to see current wind gust speed)